[[{"header":{"parameterUnit":"m.s-1","parameterCategory":1,"la1":30.2991,"la2":30.254,"lo1":-89.0895,"lo2":-89.0444,"dy":0.0017,"dx":0.0017,"nx":28,"ny":28,"refTime":"2025-08-31T21:00:00:Z","depth":0,"parameterNumber":2,"parameterNumberName":"U-component_of_WINDS"},"data":[0,0,0,0,0,0,0,0,0,0,0,0,0,0,0,0,0,0,0,0,0,0,0,0,0,0,0,0,0,0,0,0,0,0,0,0,0,0,0,0,0,0,0,0,0,0,0,0,0,0,0,0,0,0,0,0,0,0,-4.8597,-4.8597,0,-4.861,-4.861,-4.861,-4.8511,-4.8508,-4.8506,-4.8503,-4.8518,-4.8521,-4.8524,0,0,0,0,0,0,0,0,0,0,0,0,0,-4.8487,-4.849,-4.8597,-4.8597,-4.8597,-4.861,-4.861,-4.861,-4.8512,-4.8508,-4.8505,-4.8502,-4.8517,-4.8521,-4.8524,0,0,0,0,0,0,0,0,0,0,0,0,0,-4.8521,-4.8491,-4.8597,-4.8549,-4.8545,-4.861,-4.861,-4.861,-4.8512,-4.8508,-4.8504,-4.85,-4.8516,-4.852,-4.8525,-4.8636,0,0,-4.8538,-4.854,0,0,0,0,0,0,0,0,-4.8519,-4.8525,-4.8556,-4.8553,-4.8548,-4.8555,-4.8577,-4.8619,-4.8514,-4.8525,-4.8503,-4.8498,-4.8534,-4.8536,-4.8548,-4.8636,-4.8637,-4.8539,-4.8541,-4.8543,-4.8545,0,0,0,0,0,0,0,-4.8517,-4.8524,-4.8602,-4.8557,-4.8552,-4.8528,-4.8528,-4.8584,-4.8553,-4.8524,-4.8516,-4.8519,-4.8531,-4.8544,-4.8548,-4.8637,-4.8539,-4.8543,-4.8545,-4.8547,-4.8818,-4.8822,0,0,0,0,0,0,-4.8521,-4.8523,-4.8601,-4.8602,-4.8523,-4.8533,-4.8533,-4.8557,-4.8552,-4.8547,-4.8523,-4.8515,-4.8538,-4.8543,-4.8548,-4.8678,-4.8543,-4.8547,-4.855,-4.8814,-4.8819,-4.8824,0,0,0,0,0,0,-4.8519,-4.8529,-4.8601,-4.8561,-4.8568,-4.854,-4.8567,-4.8559,-4.8572,-4.8551,-4.8545,-4.8542,-4.8535,-4.8542,-4.8615,-4.8677,-4.855,-4.8554,-4.8808,-4.8815,-4.8822,-4.8938,0,0,0,0,0,0,-4.8516,-4.8529,-4.857,-4.8562,-4.8571,-4.8667,-4.857,-4.8563,-4.858,-4.857,-4.8568,-4.8563,-4.8532,-4.8609,-4.8619,-4.8681,-4.8557,-4.8803,-4.8811,-4.8819,-4.8929,-4.8948,-4.8965,0,0,0,0,0,-4.8513,-4.8603,-4.8573,-4.8583,-4.8622,-4.8671,-4.8676,-4.8638,-4.8586,-4.8627,-4.8614,-4.8563,-4.8669,-4.8617,-4.8628,-4.8692,-4.8799,-4.8809,-4.8819,-4.8921,-4.8945,-4.8965,0,0,0,0,0,0,-4.8619,-4.8601,-4.8567,-4.8657,-4.8667,-4.8654,-4.8705,-4.8664,-4.8689,-4.8678,-4.863,-4.8631,-4.8712,-4.8709,-4.8652,-4.88,-4.8724,-4.8737,-4.8798,-4.8821,-4.8838,-4.8837,-4.8561,0,0,0,0,0,-4.8653,-4.8694,-4.8676,-4.8757,-4.8763,-4.8734,-4.8754,-4.8725,-4.8732,-4.8735,-4.8727,-4.8737,-4.8772,-4.8796,-4.8827,-4.8928,-4.8927,-4.8978,-4.8996,-4.9011,-4.9023,-4.9076,-4.9099,-4.8857,-4.8857,-4.8857,0,0,-4.8723,-4.8718,-4.8747,-4.8778,-4.8782,-4.8826,-4.8738,-4.8788,-4.8821,-4.8743,-4.8811,-4.8806,-4.8814,-4.8902,-4.894,-4.8902,-4.9089,-4.9024,-4.9036,-4.9039,-4.9089,-4.9112,-4.9132,-4.8864,-4.8863,-4.8862,0,0,-4.8873,-4.8874,-4.8942,-4.8947,-4.8954,-4.8934,-4.8951,-4.8945,-4.8938,-4.9006,-4.8949,-4.8988,-4.9049,-4.9057,-4.9069,-4.9225,-4.9179,-4.9236,-4.9331,-4.9384,-4.9403,-4.9419,-4.9475,-4.9496,-4.9248,-4.9248,-4.9249,0,-4.896,-4.9024,-4.8982,-4.9036,-4.9052,-4.8984,-4.9053,-4.906,-4.9077,-4.909,-4.9047,-4.9123,-4.9124,-4.9213,-4.9251,-4.9263,-4.9281,-4.9236,-4.9403,-4.942,-4.9434,-4.9487,-4.9508,-4.9255,-4.9254,-4.9254,-4.9253,0,-4.913,-4.9175,-4.9229,-4.9247,-4.9269,-4.9331,-4.9299,-4.9326,-4.9295,-4.928,-4.9351,-4.9349,-4.9379,-4.9398,-4.9369,-4.9484,-4.946,-4.9411,-4.9335,-4.9465,-4.9514,-4.9533,-4.9265,-4.9263,-4.9261,-4.9259,0,0,-4.9346,-4.9341,-4.9362,-4.9369,-4.9372,-4.9406,-4.9465,-4.9494,-4.9519,-4.9534,-4.9582,-4.9636,-4.9591,-4.9606,-4.9576,-4.9623,-4.9747,-4.9568,-4.9568,-4.9602,-4.9874,-4.9911,-4.9935,-4.9717,-4.9721,-4.9724,-4.9873,0,-4.9493,-4.9592,-4.9557,-4.9659,-4.9701,-4.9638,-4.9689,-4.9697,-4.9685,-4.9719,-4.9706,-4.9745,-4.9683,-4.9691,-4.9735,-4.9723,-4.9801,-4.9711,-4.9762,-4.9765,-4.9762,-4.996,-4.9998,-5.0139,-4.9892,-4.9895,-4.9898,0,-4.9677,-4.9699,-4.9805,-4.9801,-4.9818,-4.9864,-4.9889,-4.9922,-4.993,-4.9918,-4.9935,-4.9896,-4.9954,-4.9879,-4.9959,-4.9899,-4.9918,-4.9916,-4.992,-4.9923,-4.9839,-4.9968,-5.0183,-5.0205,-4.9927,-4.9925,-4.9923,0,-4.9824,-4.988,-4.9951,-4.9959,-4.9957,-4.9992,-4.9992,-4.9996,-5.0016,-5.0038,-5.0051,-5.008,-5.0095,-5.0119,-5.0089,-5.0037,-5.0174,-5.0096,-5.0166,-5.0167,-5.0197,-5.0195,-5.0419,-5.0211,-5.021,-5.021,-5.0209,0,-4.9992,-5.0059,-5.0017,-5.0061,-5.0135,-5.0094,-5.0169,-5.0163,-5.0167,-5.0209,-5.0156,-5.0197,-5.0155,-5.0193,-5.017,-5.024,-5.0248,-5.024,-5.0233,-5.0244,-5.0246,-5.0256,-5.0245,-5.0215,-5.0214,-5.0213,-5.0212,0,-5.0168,-5.0143,-5.0216,-5.0208,-5.0207,-5.0262,-5.0256,-5.0296,-5.0281,-5.0335,-5.0345,-5.0321,-5.0362,-5.0335,-5.0377,-5.0362,-5.0453,-5.0433,-5.0451,-5.0445,-5.0517,-5.051,-5.0754,-5.0784,-5.0557,-5.0559,-5.0561,0,-5.0276,-5.0326,-5.0324,-5.0348,-5.0352,-5.0392,-5.0412,-5.0375,-5.0398,-5.0412,-5.0451,-5.0488,-5.0515,-5.0584,-5.0571,-5.0602,-5.0582,-5.0665,-5.0586,-5.0597,-5.0583,-5.058,-5.0585,-5.0681,-5.0684,-5.0686,-5.0688,0,-5.0471,-5.0456,-5.0487,-5.0514,-5.054,-5.056,-5.0575,-5.0598,-5.0561,-5.059,-5.0631,-5.0653,-5.0695,-5.0732,-5.0759,-5.076,-5.0719,-5.0713,-5.0731,-5.0742,-5.075,-5.0747,-5.0494,-5.0707,-5.0705,-5.0704,-5.0703,-5.0702,-5.0616,-5.0658,-5.0663,-5.07,-5.0708,-5.0724,-5.0761,-5.0751,-5.0785,-5.0816,-5.0792,-5.0841,-5.0849,-5.0881,-5.0888,-5.0926,-5.0893,-5.0919,-5.0925,-5.0932,-5.0942,-5.0745,-5.0931,-5.0931,-5.093,-5.093,-5.0929,0,-5.0807,-5.0808,-5.0842,-5.0866,-5.0895,-5.0853,-5.0868,-5.0896,-5.0939,-5.095,-5.0978,-5.1026,-5.1062,-5.1053,-5.1085,-5.1118,-5.11,-5.1128,-5.1125,-5.1126,-5.097,-5.0951,-5.1142,-5.1142,-5.1142,-5.1142,-5.1142,-5.1142,-5.091,-5.0979,-5.0966,-5.1039,-5.1038,-5.1086,-5.1098,-5.1113,-5.1122,-5.1177,-5.1207,-5.12,-5.1204,-5.1236,-5.1268,-5.1264,-5.1279,-5.1314,-5.1304,-5.1158,-5.1137,-5.1117,-5.1099,-5.1318,-5.1318,-5.1456,-5.1457,-5.1458]},{"header":{"parameterUnit":"m.s-1","parameterCategory":1,"la1":30.2991,"la2":30.254,"lo1":-89.0895,"lo2":-89.0444,"dy":0.0017,"dx":0.0017,"nx":28,"ny":28,"refTime":"2025-08-31T21:00:00:Z","depth":0,"parameterNumber":3,"parameterNumberName":"V-component_of_WINDS"},"data":[0,0,0,0,0,0,0,0,0,0,0,0,0,0,0,0,0,0,0,0,0,0,0,0,0,0,0,0,0,0,0,0,0,0,0,0,0,0,0,0,0,0,0,0,0,0,0,0,0,0,0,0,0,0,0,0,0,0,-0.9556,-0.9556,0,-0.9605,-0.9606,-0.9606,-0.9606,-0.9606,-0.9605,-0.9605,-0.9655,-0.9657,-0.9659,0,0,0,0,0,0,0,0,0,0,0,0,0,-0.9461,-0.9462,-0.9556,-0.9556,-0.9557,-0.9605,-0.9606,-0.9607,-0.9607,-0.9606,-0.9605,-0.9604,-0.9655,-0.9657,-0.966,0,0,0,0,0,0,0,0,0,0,0,0,0,-0.9505,-0.9463,-0.9556,-0.9563,-0.9564,-0.9605,-0.9606,-0.9607,-0.9607,-0.9606,-0.9605,-0.9604,-0.9654,-0.9657,-0.966,-0.9697,0,0,-0.9669,-0.967,0,0,0,0,0,0,0,0,-0.9503,-0.9509,-0.9561,-0.9562,-0.9564,-0.9599,-0.9591,-0.9637,-0.9607,-0.959,-0.9605,-0.9603,-0.9637,-0.9642,-0.9653,-0.97,-0.9702,-0.9669,-0.9671,-0.9672,-0.9673,0,0,0,0,0,0,0,-0.95,-0.9507,-0.9575,-0.9562,-0.9563,-0.9563,-0.9569,-0.96,-0.9619,-0.9592,-0.9592,-0.9598,-0.9638,-0.965,-0.9654,-0.9703,-0.9669,-0.9672,-0.9673,-0.9675,-0.9782,-0.9783,0,0,0,0,0,0,-0.9495,-0.9504,-0.9574,-0.9577,-0.953,-0.9566,-0.9572,-0.9588,-0.9618,-0.9622,-0.9599,-0.9598,-0.9646,-0.9651,-0.9656,-0.9702,-0.9672,-0.9675,-0.9677,-0.9781,-0.9782,-0.9783,0,0,0,0,0,0,-0.9493,-0.9501,-0.9572,-0.9541,-0.9549,-0.9569,-0.9587,-0.959,-0.9602,-0.9624,-0.9627,-0.9608,-0.9645,-0.9652,-0.9687,-0.9704,-0.9676,-0.9679,-0.978,-0.9781,-0.9783,-0.9794,0,0,0,0,0,0,-0.949,-0.9501,-0.9515,-0.9541,-0.9551,-0.9602,-0.9588,-0.9592,-0.9607,-0.9607,-0.9633,-0.9636,-0.9645,-0.9683,-0.969,-0.9707,-0.9681,-0.9778,-0.978,-0.9782,-0.9792,-0.9795,-0.9798,0,0,0,0,0,-0.9487,-0.9516,-0.9516,-0.9524,-0.957,-0.9603,-0.9609,-0.9618,-0.9609,-0.9623,-0.9637,-0.9636,-0.97,-0.9686,-0.9694,-0.9713,-0.9777,-0.978,-0.9782,-0.979,-0.9795,-0.9798,0,0,0,0,0,0,-0.9492,-0.952,-0.952,-0.9558,-0.9578,-0.9603,-0.9622,-0.9622,-0.9645,-0.9644,-0.9654,-0.966,-0.9695,-0.9707,-0.9691,-0.975,-0.9738,-0.9742,-0.9741,-0.9745,-0.9749,-0.9745,-0.9684,0,0,0,0,0,-0.9498,-0.9523,-0.9545,-0.9577,-0.9587,-0.9603,-0.9618,-0.9623,-0.9644,-0.9652,-0.9669,-0.9689,-0.9714,-0.973,-0.9755,-0.9793,-0.9799,-0.981,-0.9813,-0.9816,-0.982,-0.9841,-0.9846,-0.9792,-0.9791,-0.9791,0,0,-0.951,-0.9528,-0.9543,-0.9579,-0.9595,-0.962,-0.961,-0.9637,-0.9656,-0.9657,-0.9691,-0.9703,-0.9727,-0.9764,-0.9781,-0.9775,-0.9836,-0.9819,-0.9821,-0.9823,-0.9844,-0.9849,-0.9854,-0.9793,-0.9793,-0.9793,0,0,-0.9545,-0.9561,-0.9589,-0.9605,-0.963,-0.964,-0.9647,-0.9671,-0.9679,-0.9714,-0.9714,-0.9737,-0.978,-0.9796,-0.9811,-0.9851,-0.9851,-0.9858,-0.9876,-0.9897,-0.9901,-0.9905,-0.9919,-0.9924,-0.9862,-0.9862,-0.9862,0,-0.9557,-0.9595,-0.9604,-0.9631,-0.9647,-0.9648,-0.9676,-0.9692,-0.9723,-0.9733,-0.9726,-0.978,-0.9796,-0.9837,-0.9847,-0.9858,-0.9866,-0.9856,-0.9899,-0.9903,-0.9907,-0.9921,-0.9927,-0.9863,-0.9863,-0.9863,-0.9863,0,-0.9608,-0.9635,-0.9655,-0.9684,-0.9702,-0.973,-0.9743,-0.976,-0.9763,-0.9774,-0.9808,-0.9827,-0.9855,-0.9865,-0.9869,-0.9907,-0.9902,-0.9897,-0.9885,-0.9913,-0.9926,-0.9932,-0.9864,-0.9864,-0.9863,-0.9863,0,0,-0.9649,-0.9683,-0.969,-0.9703,-0.973,-0.975,-0.9778,-0.9805,-0.9819,-0.984,-0.9864,-0.99,-0.9895,-0.9911,-0.9917,-0.9935,-0.9965,-0.9927,-0.9928,-0.9934,-1.0008,-1.0012,-1.0018,-0.9965,-0.9966,-0.9967,-1.0006,0,-0.9687,-0.9736,-0.9744,-0.9787,-0.9812,-0.9813,-0.9837,-0.9856,-0.9866,-0.9888,-0.99,-0.9925,-0.9917,-0.9927,-0.9945,-0.9958,-0.998,-0.9955,-0.9987,-0.9988,-0.9981,-1.0025,-1.0029,-1.0065,-1.0011,-1.0012,-1.0013,0,-0.9737,-0.976,-0.9805,-0.9828,-0.9839,-0.986,-0.9886,-0.9907,-0.9928,-0.9934,-0.9952,-0.9955,-0.9984,-0.997,-1.0009,-0.9991,-1.0005,-1.0013,-1.0015,-1.0019,-1.0002,-1.003,-1.0077,-1.0082,-1.0021,-1.002,-1.002,0,-0.9762,-0.9804,-0.9836,-0.9848,-0.9875,-0.989,-0.9903,-0.9923,-0.9938,-0.9961,-0.9971,-0.9996,-1.001,-1.0029,-1.0039,-1.0028,-1.0078,-1.0064,-1.0084,-1.0084,-1.0095,-1.0094,-1.0145,-1.0103,-1.0103,-1.0103,-1.0102,0,-0.9804,-0.9832,-0.9848,-0.9868,-0.9899,-0.9908,-0.9938,-0.995,-0.9968,-0.999,-0.9993,-1.0014,-1.0025,-1.0048,-1.0056,-1.0087,-1.0093,-1.0099,-1.0101,-1.0099,-1.0098,-1.0108,-1.0106,-1.0104,-1.0104,-1.0103,-1.0103,0,-0.9837,-0.9849,-0.9884,-0.9908,-0.9914,-0.9936,-0.9956,-0.9975,-0.9985,-1.0013,-1.002,-1.0037,-1.0063,-1.0075,-1.0107,-1.0113,-1.0149,-1.0148,-1.0141,-1.0142,-1.0161,-1.0159,-1.022,-1.0229,-1.0181,-1.0181,-1.0182,0,-0.9863,-0.9884,-0.991,-0.9925,-0.9937,-0.9961,-0.9977,-0.9987,-1.0003,-1.0029,-1.0045,-1.0072,-1.0094,-1.0136,-1.015,-1.0175,-1.0176,-1.0196,-1.018,-1.0177,-1.0176,-1.0175,-1.0177,-1.0199,-1.0199,-1.02,-1.02,0,-0.9907,-0.9912,-0.9935,-0.996,-0.9979,-0.9999,-1.0018,-1.0031,-1.0043,-1.0062,-1.0089,-1.0105,-1.0139,-1.0165,-1.0191,-1.0203,-1.0204,-1.0205,-1.0211,-1.0209,-1.0204,-1.0207,-1.015,-1.0203,-1.0203,-1.0203,-1.0203,-1.0202,-0.9938,-0.9957,-0.9977,-1.0003,-1.0018,-1.0037,-1.0056,-1.0068,-1.0091,-1.0119,-1.0123,-1.0152,-1.0172,-1.0207,-1.0221,-1.0243,-1.0238,-1.0247,-1.0249,-1.0251,-1.0252,-1.02,-1.0248,-1.0248,-1.0248,-1.0248,-1.0248,0,-0.9982,-0.9996,-1.0019,-1.0046,-1.0066,-1.0064,-1.0086,-1.0103,-1.0128,-1.0147,-1.0168,-1.0199,-1.0225,-1.0241,-1.0267,-1.0282,-1.0283,-1.0288,-1.0287,-1.029,-1.0255,-1.0248,-1.0287,-1.0287,-1.0287,-1.0287,-1.0287,-1.0287,-1.0008,-1.004,-1.0047,-1.0087,-1.01,-1.0128,-1.0141,-1.0157,-1.0172,-1.0207,-1.0228,-1.0239,-1.0256,-1.0283,-1.0307,-1.0311,-1.032,-1.0326,-1.033,-1.0297,-1.0293,-1.0289,-1.0282,-1.0328,-1.0328,-1.0363,-1.0364,-1.0364]}]]